Tracking 35275 objects as of 9-Sep-2026
HD Live streaming from Space Station
objects crossing your sky now

STARLINK-3253

Track STARLINK-3253 now!
10-day predictions
STARLINK-3253 is classified as:


NORAD ID: 51136
Int'l Code: 2022-005AJ
Launch date: January 19, 2022
Source: United States (US)
Launch site: AIR FORCE EASTERN TEST RANGE (AFETR)
Your satellite tracking list
Your tracking list is empty




NASA's NSSDC Master Catalog

Two Line Element Set (TLE):
1 51136U 22005AJ  26251.96325772 -.00000819  00000-0 -13117-4 0  9999
2 51136  53.1593 183.3106 0001179  89.0810 271.0327 15.34385989256572
Source of the keplerian elements: AFSPC